Вернуться в каталог

STARLINK-3147

АктивенСвязьVLEO
NORAD 49410·PAYLOAD·🇺🇸 United States

Запущен Nov 13, 2021 с Cape Canaveral Space Force Station

Loading…

Ближайшие Пролёты (ближайшие 24 часа)

TLE

СвежийSource: CelesTrak SupGP

Эпоха: Sep 14, 2026, 21:40 UTC

1 49410C 21104C   26257.90326389  .00030156  00000+0  96979-3 0  2572
2 49410  53.1576  86.8751 0001193  82.7828  80.5188 15.31685090    10

Отслеживайте STARLINK-3147 в реальном времени с AllMySat

Download on the App Store